Location: Newark
(40.3500°N, 15.2333°E)
Time: 21:23:16
(UTC+00:00)

Vanguard 2 Rocket - All Passes

Search period start: 22 January 2020 00:00
Search period end: 01 February 2020 00:00
Orbit: 554 x 3326 km, 32.9° (Epoch: 22 January)

Date Brightness Start Highest point End Pass type
(mag) Time Alt. Az. Time Alt. Az. Time Alt. Az.
22 Jan - 04:00:09 10° SSW 04:03:43 21° SSE 04:08:30 10° ESE visible
22 Jan - 06:10:26 10° WSW 06:16:01 48° S 06:25:34 10° E daylight
22 Jan - 08:22:14 10° W 08:29:50 48° S 08:42:59 10° ESE daylight
22 Jan - 10:35:37 10° W 10:44:51 30° SSW 10:58:27 10° SSE daylight
22 Jan - 12:56:45 10° SW 13:00:31 11° SW 13:04:35 10° SSW daylight
23 Jan - 03:03:11 10° SSE 03:04:49 12° SE 03:06:36 10° ESE visible
23 Jan - 05:11:54 10° SW 05:16:37 39° SSE 05:24:04 10° E visible
23 Jan - 07:23:18 10° WSW 07:29:47 49° S 07:41:07 10° ESE daylight
23 Jan - 09:35:54 10° W 09:44:14 35° SSW 09:57:25 10° SE daylight
23 Jan - 11:52:26 10° WSW 11:59:37 16° SSW 12:08:26 10° S daylight
24 Jan - 04:13:34 10° SW 04:17:27 29° SSE 04:22:57 10° E visible
24 Jan - 06:24:32 10° WSW 06:30:03 48° S 06:39:25 10° ESE daylight
24 Jan - 08:36:37 10° W 08:43:54 39° SSW 08:56:01 10° SE daylight
24 Jan - 10:51:06 10° WSW 10:58:52 21° SSW 11:09:21 10° SSE daylight
25 Jan - 03:15:32 10° SSW 03:18:28 18° SSE 03:22:01 10° ESE visible
25 Jan - 05:25:54 10° WSW 05:30:35 43° S 05:38:05 10° ESE visible
25 Jan - 07:37:36 10° WSW 07:43:53 41° S 07:54:31 10° SE daylight
25 Jan - 09:50:52 10° WSW 09:58:19 25° SSW 10:09:11 10° SSE daylight
26 Jan - 02:18:45 10° SSE 02:19:30 10° SSE 02:20:16 10° SE visible
26 Jan - 04:27:21 10° SW 04:31:22 35° SSE 04:37:08 10° ESE visible
26 Jan - 06:38:45 10° WSW 06:44:08 43° S 06:53:06 10° ESE daylight
26 Jan - 08:51:16 10° WSW 08:58:01 29° SSW 09:08:28 10° SSE daylight
26 Jan - 11:08:48 10° SW 11:12:57 12° SSW 11:17:44 10° SSW daylight
27 Jan - 03:28:55 10° SW 03:32:18 25° SSE 03:36:32 10° ESE visible
27 Jan - 05:40:01 10° WSW 05:44:39 41° S 05:51:58 10° ESE visible
27 Jan - 07:52:03 10° WSW 07:58:00 32° SSW 08:07:29 10° SE daylight
27 Jan - 10:06:53 10° WSW 10:12:27 16° SSW 10:19:36 10° S daylight
28 Jan - 02:30:41 10° SSW 02:33:18 17° SSE 02:36:09 10° ESE visible
28 Jan - 04:41:20 10° WSW 04:45:23 37° S 04:51:11 10° ESE visible
28 Jan - 06:53:06 10° WSW 06:58:15 34° S 07:06:29 10° SE daylight
28 Jan - 09:06:33 10° WSW 09:12:11 19° SSW 09:19:59 10° SSE daylight
29 Jan - 01:33:14 10° S 01:34:15 11° SSE 01:35:15 10° SE night (unlit)
29 Jan - 03:42:41 10° SW 03:46:16 31° SSE 03:50:47 10° ESE visible
29 Jan - 05:54:16 10° WSW 05:58:45 36° S 06:05:38 10° ESE daylight
29 Jan - 08:06:56 10° WSW 08:12:11 22° SSW 08:19:48 10° SSE daylight
30 Jan - 02:44:02 10° SW 02:47:13 23° SSE 02:50:44 10° ESE visible
30 Jan - 04:55:30 10° WSW 04:59:28 35° S 05:05:05 10° ESE visible
30 Jan - 07:07:42 10° WSW 07:12:26 25° SSW 07:19:23 10° SE daylight
30 Jan - 09:24:08 10° SW 09:26:24 11° SSW 09:28:56 10° SSW daylight
31 Jan - 01:45:23 10° SSW 01:48:10 17° SSE 01:50:53 10° ESE night (unlit)
31 Jan - 03:56:42 10° WSW 04:00:18 33° S 04:04:51 10° ESE visible
31 Jan - 06:08:42 10° WSW 06:12:54 27° S 06:18:58 10° SE daylight
31 Jan - 08:22:52 10° SW 08:26:24 14° SSW 08:30:46 10° S daylight
